Weather History for KPQI - January, 2013

Change the Weather History Date:

Sunday, January 20, 2013

  Actual Average (KCAR) Record (KCAR)
Temperature  
Mean Temperature 21 °F 9 °F  
Max Temperature 37 °F 19 °F 50 °F (1996)
Min Temperature 5 °F 0 °F -28 °F (1994)
Degree Days  
Heating Degree Days 44 56  
Month to date heating degree days 1093  
Since 1 July heating degree days 4687  
Cooling Degree Days 0 0  
Month to date cooling degree days 0  
Year to date cooling degree days 0  
Moisture  
Dew Point 14 °F    
Average Humidity 70    
Maximum Humidity 93    
Minimum Humidity 46    
Precipitation  
Precipitation 0.03 in 0.09 in 1.06 in (1986)
Month to date precipitation 1.77  
Year to date precipitation 1.77  
Snow  
Snow 0.00 in 0.80 in 11.10 in (2005)
Month to date snowfall 16.2  
Since 1 July snowfall 51.3  
Snow Depth -    
Sea Level Pressure  
Sea Level Pressure 29.46 in    
Wind  
Wind Speed 10 mph (South)    
Max Wind Speed 31 mph    
Max Gust Speed 45 mph    
Visibility 7 miles    
Events      
T = Trace of Precipitation, MM = Missing Value Source: NWS Daily Summary

Daily Weather History Graph

Daily Weather History Graph

Search for Another Location

Airport or City:

Trip Planner

Search our weather history database for the weather conditions in past years. The results will help you decide how hot, cold, wet, or windy it might be!

Date:

Astronomy

Jan. 20, 2013 Rise Set
Actual Time 7:08 AM EST 4:18 PM EST
Civil Twilight 6:35 AM EST 4:51 PM EST
Nautical Twilight 5:57 AM EST 5:29 PM EST
Astronomical Twilight 5:21 AM EST 6:05 PM EST
Moon 11:18 AM EST (1/20) 1:35 AM EST (1/20)
Length of Visible Light 10h 16m
Length of Day
9h 09m
Waxing Gibbous, 66% of the Moon is Illuminated
Jan 20
Waxing Gibbous
Jan 26
Full
Feb 3
Last Quarter
Feb 10
New
Feb 17
First Quarter

Hourly Weather History & Observations

Time (EST) Temp. Windchill Dew Point Humidity Pressure Visibility Wind Dir Wind Speed Gust Speed Precip Events Conditions
12:15 AM 19.4 °F 11.5 °F 14.0 °F 80% 29.85 in 3.0 mi ENE 5.8 mph - N/A   Overcast
12:35 AM 19.4 °F 11.5 °F 14.0 °F 80% 29.84 in 2.5 mi ENE 5.8 mph - N/A   Overcast
1:15 AM 19.4 °F 11.5 °F 15.8 °F 86% 29.83 in 2.0 mi ENE 5.8 mph - N/A   Overcast
1:35 AM 19.4 °F 12.8 °F 15.8 °F 86% 29.82 in 2.0 mi East 4.6 mph - N/A   Overcast
1:55 AM 21.2 °F 14.9 °F 15.8 °F 80% 29.81 in 2.0 mi ESE 4.6 mph - N/A   Overcast
2:15 AM 21.2 °F 10.9 °F 15.8 °F 80% 29.81 in 1.8 mi ESE 9.2 mph - N/A   Overcast
2:35 AM 21.2 °F 13.6 °F 15.8 °F 80% 29.79 in 2.0 mi East 5.8 mph 21.9 mph N/A   Overcast
2:55 AM 19.4 °F 7.9 °F 14.0 °F 80% 29.78 in 8.0 mi ESE 10.4 mph 21.9 mph N/A   Overcast
3:15 AM 19.4 °F 8.6 °F 14.0 °F 80% 29.75 in 9.0 mi East 9.2 mph - N/A   Overcast
3:35 AM 19.4 °F 10.4 °F 12.2 °F 74% 29.75 in 5.0 mi SE 6.9 mph 17.3 mph N/A   Overcast
3:55 AM 17.6 °F 5.7 °F 10.4 °F 73% 29.74 in 5.0 mi SE 10.4 mph 18.4 mph N/A   Overcast
4:15 AM 17.6 °F 4.3 °F 12.2 °F 79% 29.74 in 5.0 mi SE 12.7 mph 20.7 mph N/A   Overcast
4:55 AM 17.6 °F 5.0 °F 12.2 °F 79% 29.71 in 1.5 mi ESE 11.5 mph - N/A   Overcast
5:15 AM 17.6 °F 6.4 °F 12.2 °F 79% 29.68 in 2.5 mi ESE 9.2 mph - N/A   Overcast
5:35 AM 17.6 °F 6.4 °F 12.2 °F 79% 29.66 in 1.8 mi ESE 9.2 mph - N/A   Overcast
5:55 AM 17.6 °F 5.7 °F 14.0 °F 86% 29.64 in 2.0 mi ESE 10.4 mph - N/A   Overcast
6:15 AM 19.4 °F 9.5 °F 14.0 °F 80% 29.63 in 2.5 mi ESE 8.1 mph - N/A   Overcast
6:35 AM 19.4 °F 9.5 °F 12.2 °F 74% 29.60 in 2.0 mi ESE 8.1 mph 16.1 mph N/A   Overcast
6:55 AM 19.4 °F 7.2 °F 15.8 °F 86% 29.57 in 4.0 mi ESE 11.5 mph 16.1 mph N/A   Overcast
7:16 AM 19.4 °F 10.4 °F 14.0 °F 80% 29.56 in 8.0 mi ESE 6.9 mph - N/A   Overcast
7:35 AM 19.4 °F 14.3 °F 12.2 °F 74% 29.53 in 10.0 mi ESE 3.5 mph - N/A   Overcast
7:55 AM 19.4 °F 14.3 °F 15.8 °F 86% 29.51 in 10.0 mi ESE 3.5 mph - N/A   Overcast
8:15 AM 19.4 °F 11.5 °F 15.8 °F 86% 29.49 in 10.0 mi ESE 5.8 mph - N/A   Overcast
8:35 AM 21.2 °F 12.6 °F 15.8 °F 80% 29.46 in 10.0 mi SE 6.9 mph - N/A   Overcast
8:55 AM 21.2 °F 10.9 °F 15.8 °F 80% 29.44 in 10.0 mi SE 9.2 mph - N/A   Overcast
9:15 AM 23.0 °F 11.7 °F 17.6 °F 80% 29.42 in 10.0 mi SE 11.5 mph 16.1 mph N/A   Overcast
9:35 AM 23.0 °F 15.8 °F 19.4 °F 86% 29.40 in 10.0 mi SE 5.8 mph - N/A   Overcast
9:55 AM 24.8 °F 19.1 °F 17.6 °F 74% 29.39 in 10.0 mi SE 4.6 mph - N/A   Overcast
10:15 AM 24.8 °F 16.1 °F 19.4 °F 80% 29.36 in 10.0 mi SSE 8.1 mph - N/A   Overcast
10:35 AM 24.8 °F 14.6 °F 19.4 °F 80% 29.34 in 10.0 mi SSE 10.4 mph - N/A   Overcast
10:55 AM 24.8 °F 14.6 °F 19.4 °F 80% 29.31 in 10.0 mi SSE 10.4 mph - N/A   Overcast
11:15 AM 24.8 °F 16.9 °F 21.2 °F 86% 29.27 in 10.0 mi SSE 6.9 mph - N/A   Overcast
11:35 AM 24.8 °F 16.1 °F 21.2 °F 86% 29.26 in 8.0 mi SSE 8.1 mph - N/A   Overcast
11:55 AM 26.6 °F 16.2 °F 21.2 °F 80% 29.24 in 6.0 mi SSE 11.5 mph 16.1 mph N/A   Overcast
12:15 PM 26.6 °F 18.2 °F 23.0 °F 86% 29.22 in 5.0 mi SE 8.1 mph - N/A   Overcast
12:35 PM 26.6 °F 21.2 °F 23.0 °F 86% 29.22 in 5.0 mi SSE 4.6 mph - N/A   Overcast
12:55 PM 28.4 °F 24.6 °F 23.0 °F 80% 29.21 in 10.0 mi SSE 3.5 mph - N/A   Mostly Cloudy
1:15 PM 28.4 °F 23.3 °F 26.6 °F 93% 29.19 in 10.0 mi South 4.6 mph - N/A   Mostly Cloudy
1:35 PM 33.8 °F 25.8 °F 28.4 °F 81% 29.19 in 10.0 mi SSW 10.4 mph - N/A   Mostly Cloudy
1:55 PM 35.6 °F 25.9 °F 28.4 °F 75% 29.19 in 10.0 mi South 16.1 mph - N/A   Scattered Clouds
2:15 PM 35.6 °F 26.6 °F 28.4 °F 75% 29.19 in 10.0 mi South 13.8 mph 18.4 mph N/A   Partly Cloudy
2:35 PM 37.4 °F 27.8 °F 26.6 °F 65% 29.19 in 10.0 mi SSW 17.3 mph 21.9 mph N/A   Clear
2:55 PM 37.4 °F 28.5 °F 26.6 °F 65% 29.21 in 10.0 mi SW 15.0 mph 26.5 mph 0.01 in   Partly Cloudy
3:15 PM 37.4 °F 28.2 °F 24.8 °F 60% 29.21 in 10.0 mi SW 16.1 mph 26.5 mph N/A   Clear
3:35 PM 37.4 °F 28.9 °F 24.8 °F 60% 29.22 in 10.0 mi SSW 13.8 mph 23.0 mph 0.01 in   Partly Cloudy
3:55 PM 35.6 °F 25.2 °F 21.2 °F 56% 29.22 in 10.0 mi SW 18.4 mph 28.8 mph 0.01 in   Scattered Clouds
4:35 PM 35.6 °F 24.5 °F 23.0 °F 60% 29.24 in 10.0 mi SW 20.7 mph 33.4 mph N/A   Mostly Cloudy
4:55 PM 33.8 °F 22.2 °F 23.0 °F 65% 29.25 in 10.0 mi WSW 20.7 mph 28.8 mph N/A   Scattered Clouds
5:15 PM 33.8 °F 23.5 °F 19.4 °F 56% 29.26 in 10.0 mi WSW 16.1 mph 28.8 mph N/A   Scattered Clouds
5:35 PM 33.8 °F 22.5 °F 17.6 °F 52% 29.28 in 10.0 mi WSW 19.6 mph 29.9 mph N/A   Scattered Clouds
5:55 PM 32.0 °F 20.1 °F 17.6 °F 55% 29.29 in 10.0 mi WSW 19.6 mph 33.4 mph N/A   Mostly Cloudy
6:15 PM 30.2 °F 18.1 °F 17.6 °F 60% 29.30 in 8.0 mi SW 18.4 mph 33.4 mph N/A   Mostly Cloudy
6:35 PM 30.2 °F 15.4 °F 12.2 °F 47% 29.32 in 2.0 mi WSW 28.8 mph 40.3 mph N/A   Scattered Clouds
6:55 PM 28.4 °F 14.4 °F 12.2 °F 51% 29.34 in 1.5 mi WSW 23.0 mph 44.9 mph 0.01 in   Scattered Clouds
7:15 PM 28.4 °F 16.2 °F 12.2 °F 51% 29.34 in 10.0 mi SW 17.3 mph 27.6 mph N/A   Scattered Clouds
7:35 PM 26.6 °F 12.7 °F 12.2 °F 55% 29.36 in 8.0 mi WSW 20.7 mph 33.4 mph N/A   Scattered Clouds
7:55 PM 26.6 °F 13.4 °F 10.4 °F 51% 29.37 in 10.0 mi WSW 18.4 mph 32.2 mph N/A   Mostly Cloudy
8:15 PM 23.0 °F 5.1 °F 5.0 °F 46% 29.39 in 1.5 mi WSW 31.1 mph 42.6 mph N/A   Mostly Cloudy
8:35 PM 21.2 °F 3.0 °F 10.4 °F 63% 29.41 in 5.0 mi West 29.9 mph 34.5 mph N/A   Mostly Cloudy
8:55 PM 19.4 °F 1.4 °F 5.0 °F 54% 29.43 in 2.5 mi WSW 26.5 mph 39.1 mph N/A   Mostly Cloudy
9:15 PM 17.6 °F -1.3 °F 3.2 °F 53% 29.46 in 6.0 mi WSW 27.6 mph 36.8 mph N/A   Scattered Clouds
9:35 PM 15.8 °F -1.9 °F -0.4 °F 49% 29.48 in 3.0 mi WSW 21.9 mph 33.4 mph N/A   Scattered Clouds
9:55 PM 12.2 °F -4.3 °F -2.2 °F 53% 29.52 in 10.0 mi West 16.1 mph 28.8 mph N/A   Mostly Cloudy
10:15 PM 8.6 °F -13.1 °F -5.8 °F 52% 29.54 in 3.0 mi WSW 26.5 mph 39.1 mph N/A   Scattered Clouds
10:35 PM 6.8 °F -12.4 °F -7.6 °F 52% 29.56 in 6.0 mi West 18.4 mph 31.1 mph N/A   Partly Cloudy
10:55 PM 6.8 °F -10.7 °F -9.4 °F 48% 29.57 in 10.0 mi West 15.0 mph - N/A   Clear
11:15 PM 5.0 °F -11.6 °F -9.4 °F 52% 29.58 in 10.0 mi West 12.7 mph 21.9 mph N/A   Clear
11:35 PM 5.0 °F -10.0 °F -7.6 °F 56% 29.57 in 10.0 mi West 10.4 mph 18.4 mph N/A   Clear
11:55 PM 5.0 °F -13.0 °F -7.6 °F 56% 29.57 in 10.0 mi WSW 15.0 mph 25.3 mph N/A   Clear